カタログに戻る

CZ-4 DEB

運用中SSO
NORAD 35327·DEBRIS·🇨🇳 China

打ち上げ Oct 14, 1999 から Taiyuan Satellite Launch Center

Loading…

次のパス (今後24時間)

TLE

経年Source: Space-Track

元期: Sep 7, 2026, 11:23 UTC

1 35327U 99057SF  26250.47457346  .00001624  00000-0  31098-3 0  9992
2 35327  98.4631 343.0038 0071118 216.3446 143.2914 14.63694321725375

AllMySatでCZ-4 DEBをリアルタイム追跡

Download on the App Store